Погода в Толу

Колумбия     9°31′15″N   75°34′33″W
В апреле 2022 года жителям России запретили посещать сайт meteo.paraplan.net по решению Генеральной прокуратуры. Аудитория сайта уменьшилась в 10 раз. Владельцы сайта не видят смысла в поддержке погодного сервера в таких условиях. Сайт будет закрыт в октябре.
темп.,
°C
ветер,
м/с
пор.,
м/с
влажн.,
%
обл.,
%
осадки,
мм/ч
давл.,
гПа
погр.,
м
25 сентября, вс
вс2501:00+24в119159 5.3 100941
04:00+23ююв3392100 0.2 100881
07:00+24юв349385 0.2 1010182
10:00+28ююв237892 0.0 1010689
13:00+30юз226628 0.0 10071239
16:00+29сз327358 0.0 1006504
19:00+25с358989 0.8 1008146
22:00+24ссв2391100 1.4 101079
26 сентября, пн
пн2601:00+24св1289100 2.4 100933
04:00+24св1191100 0.0 100846
07:00+25ююв1189100 0.1 101087
10:00+28з1178100 0.4 1011531
13:00+29зсз3274100 0.7 1008758
16:00+27зсз3483100 1.3 1007408
19:00+26с2388100 2.3 1009109
22:00+25ссз129099 1.4 101164
27 сентября, вт
вт2701:00+24св019187 1.8 101020
04:00+24в1193100 2.3 101025
07:00+25ююв0091100 2.4 101152
10:00+27ююв1184100 0.1 1012340
13:00+29сз227296 0.7 1010816
16:00+28ссз3483100 3.3 1008343
19:00+25с2389100 3.8 1010127
22:00+25ссв229168 0.0 101292
28 сентября, ср
ср2801:00+24всв1192100 0.0 101136
04:00+24ю1191100 0.0 101049
07:00+25юв1291100 0.1 101283
10:00+28ююз227963 0.0 1013685
13:00+29зсз327338 0.4 1010888
16:00+28сз458293 1.9 1008514
19:00+26с348899 2.8 1010175
22:00+25с2288100 0.1 1011135
29 сентября, чт
чт2901:00+25з1290100 1.3 1010137
04:00+24зюз1293100 5.6 100980
07:00+24всв1193100 9.4 101156
10:00+26юз2288100 4.0 1012155
13:00+26з3485100 4.9 1009493
16:00+27сз3482100 0.0 1007640
19:00+25сз238791 0.0 1008155
22:00+25сз238781 1.4 1010163